| time (UTC) | temp F | wind direction | speed MPH | gust MPH | rain 1hr in | rain 24hr in | rain mn in | humidity % | barometer mb |
| 20260505125031 | 52 | 295 | 3.0 | 5.0 | 0.00 | 0.00 | 0.00 | 74 | 1010.1 |
| 20260505124557 | 52 | 295 | 2.0 | 5.0 | 0.00 | 0.00 | 0.00 | 74 | 1010.1 |
| 20260505124034 | 52 | 295 | 3.0 | 5.0 | 0.00 | 0.00 | 0.00 | 73 | 1010.0 |
| 20260505123533 | 52 | 295 | 3.0 | 5.0 | 0.00 | 0.00 | 0.00 | 73 | 1010.0 |
| 20260505123104 | 52 | 295 | 2.0 | 5.0 | 0.00 | 0.00 | 0.00 | 73 | 1010.1 |
| 20260505122534 | 52 | 295 | 1.0 | 5.0 | 0.00 | 0.00 | 0.00 | 73 | 1010.0 |
| 20260505122037 | 52 | 295 | 4.0 | 5.0 | 0.00 | 0.00 | 0.00 | 73 | 1009.9 |
| 20260505121543 | 53 | 295 | 1.0 | 5.0 | 0.00 | 0.00 | 0.00 | 73 | 1009.9 |
| 20260505121031 | 53 | 295 | 2.0 | 5.0 | 0.00 | 0.00 | 0.00 | 72 | 1009.7 |
| 20260505120531 | 53 | 295 | 2.0 | 5.0 | 0.00 | 0.00 | 0.00 | 72 | 1009.7 |
| 20260505120047 | 53 | 295 | 2.0 | 7.0 | 0.00 | 0.00 | 0.00 | 72 | 1009.7 |
| 20260505115531 | 53 | 295 | 2.0 | 7.0 | 0.00 | 0.00 | 0.00 | 72 | 1009.7 |
| 20260505115033 | 53 | 295 | 4.0 | 7.0 | 0.00 | 0.00 | 0.00 | 71 | 1009.6 |
| 20260505114546 | 54 | 295 | 3.0 | 5.0 | 0.00 | 0.00 | 0.00 | 71 | 1009.6 |
| 20260505114030 | 54 | 295 | 3.0 | 5.0 | 0.00 | 0.00 | 0.00 | 71 | 1009.6 |
| 20260505113532 | 54 | 295 | 2.0 | 5.0 | 0.00 | 0.00 | 0.00 | 70 | 1009.4 |
| 20260505113043 | 54 | 295 | 1.0 | 7.0 | 0.00 | 0.00 | 0.00 | 70 | 1009.5 |
| 20260505112534 | 54 | 295 | 3.0 | 7.0 | 0.00 | 0.00 | 0.00 | 71 | 1009.5 |
| 20260505112034 | 54 | 295 | 3.0 | 5.0 | 0.00 | 0.00 | 0.00 | 71 | 1009.3 |
| 20260505111550 | 54 | 295 | 1.0 | 5.0 | 0.00 | 0.00 | 0.00 | 70 | 1009.3 |
| 20260505111034 | 54 | 295 | 2.0 | 5.0 | 0.00 | 0.00 | 0.00 | 71 | 1009.3 |
| 20260505110534 | 54 | 0 | 1.0 | 3.0 | 0.00 | 0.00 | 0.00 | 71 | 1009.2 |
| 20260505102034 | 55 | 295 | 3.0 | 5.0 | 0.00 | 0.00 | 0.00 | 69 | 1009.0 |
| 20260505101541 | 56 | 295 | 2.0 | 4.0 | 0.00 | 0.00 | 0.00 | 67 | 1009.0 |
| 20260505101037 | 56 | 295 | 2.0 | 3.0 | 0.00 | 0.00 | 0.00 | 66 | 1009.1 |
| 20260505100538 | 57 | 295 | 0.0 | 3.0 | 0.00 | 0.00 | 0.00 | 65 | 1009.0 |
| 20260505100049 | 58 | 295 | 0.0 | 2.0 | 0.00 | 0.00 | 0.00 | 64 | 1009.0 |
| 20260505095534 | 58 | 0 | 0.0 | 4.0 | 0.00 | 0.00 | 0.00 | 63 | 1008.8 |
| 20260505095033 | 58 | 295 | 2.0 | 9.0 | 0.00 | 0.00 | 0.00 | 63 | 1008.7 |
| 20260505094553 | 58 | 295 | 3.0 | 9.0 | 0.00 | 0.00 | 0.00 | 63 | 1008.7 |
| 20260505094033 | 58 | 295 | 6.0 | 9.0 | 0.00 | 0.00 | 0.00 | 65 | 1008.4 |
| 20260505093533 | 57 | 295 | 3.0 | 7.0 | 0.00 | 0.00 | 0.00 | 66 | 1008.5 |
| 20260505093048 | 57 | 295 | 0.0 | 4.0 | 0.00 | 0.00 | 0.00 | 66 | 1008.5 |
| 20260505092534 | 58 | 0 | 0.0 | 4.0 | 0.00 | 0.00 | 0.00 | 66 | 1008.4 |
| 20260505092033 | 58 | 295 | 1.0 | 4.0 | 0.00 | 0.00 | 0.00 | 66 | 1008.3 |
| 20260505091555 | 58 | 295 | 1.0 | 8.0 | 0.00 | 0.00 | 0.00 | 65 | 1008.2 |
| 20260505091031 | 58 | 295 | 3.0 | 8.0 | 0.00 | 0.00 | 0.00 | 65 | 1008.2 |
| 20260505090533 | 58 | 295 | 4.0 | 7.0 | 0.00 | 0.00 | 0.00 | 65 | 1008.1 |
| 20260505090055 | 58 | 295 | 4.0 | 7.0 | 0.00 | 0.00 | 0.00 | 65 | 1007.9 |
| 20260505085534 | 58 | 295 | 3.0 | 7.0 | 0.00 | 0.00 | 0.00 | 65 | 1008.0 |
| 20260505085033 | 59 | 295 | 4.0 | 7.0 | 0.00 | 0.00 | 0.00 | 64 | 1008.0 |
| 20260505084541 | 59 | 295 | 4.0 | 8.0 | 0.00 | 0.00 | 0.00 | 64 | 1008.0 |
| 20260505084034 | 59 | 295 | 5.0 | 8.0 | 0.00 | 0.00 | 0.00 | 64 | 1008.0 |
| 20260505083534 | 59 | 295 | 5.0 | 8.0 | 0.00 | 0.00 | 0.00 | 65 | 1008.1 |
| 20260505083046 | 59 | 295 | 5.0 | 8.0 | 0.00 | 0.00 | 0.00 | 64 | 1008.1 |
| 20260505082532 | 59 | 295 | 6.0 | 8.0 | 0.00 | 0.00 | 0.00 | 64 | 1008.0 |
| 20260505082034 | 59 | 295 | 4.0 | 7.0 | 0.00 | 0.00 | 0.00 | 64 | 1008.0 |
| 20260505081552 | 59 | 295 | 4.0 | 7.0 | 0.00 | 0.00 | 0.00 | 64 | 1008.1 |
| 20260505081032 | 59 | 295 | 5.0 | 7.0 | 0.00 | 0.00 | 0.00 | 65 | 1008.0 |
| 20260505080536 | 59 | 295 | 4.0 | 7.0 | 0.00 | 0.00 | 0.00 | 65 | 1008.0 |
| 20260505080046 | 59 | 295 | 4.0 | 7.0 | 0.00 | 0.00 | 0.00 | 65 | 1008.0 |
| 20260505075534 | 59 | 295 | 4.0 | 8.0 | 0.00 | 0.00 | 0.00 | 64 | 1008.0 |
| 20260505075031 | 60 | 295 | 5.0 | 8.0 | 0.00 | 0.00 | 0.00 | 64 | 1007.9 |
| 20260505074604 | 60 | 295 | 4.0 | 8.0 | 0.00 | 0.00 | 0.00 | 63 | 1007.9 |
| 20260505074034 | 60 | 295 | 3.0 | 8.0 | 0.00 | 0.00 | 0.00 | 62 | 1007.8 |
| 20260505073534 | 60 | 295 | 4.0 | 8.0 | 0.00 | 0.00 | 0.00 | 62 | 1007.9 |
| 20260505073049 | 61 | 295 | 6.0 | 9.0 | 0.00 | 0.00 | 0.00 | 61 | 1007.8 |
| 20260505072535 | 61 | 295 | 5.0 | 9.0 | 0.00 | 0.00 | 0.00 | 61 | 1007.8 |
| 20260505072034 | 61 | 295 | 7.0 | 9.0 | 0.00 | 0.00 | 0.00 | 61 | 1007.7 |
| 20260505071542 | 61 | 295 | 6.0 | 8.0 | 0.00 | 0.00 | 0.00 | 61 | 1007.8 |
| 20260505071034 | 61 | 295 | 4.0 | 7.0 | 0.00 | 0.00 | 0.00 | 61 | 1007.8 |
| 20260505070534 | 61 | 295 | 3.0 | 7.0 | 0.00 | 0.00 | 0.00 | 61 | 1007.7 |
| 20260505070045 | 61 | 295 | 4.0 | 7.0 | 0.00 | 0.00 | 0.00 | 61 | 1007.6 |
| 20260505065535 | 61 | 295 | 3.0 | 7.0 | 0.00 | 0.00 | 0.00 | 61 | 1007.6 |
| 20260505065030 | 61 | 295 | 4.0 | 7.0 | 0.00 | 0.00 | 0.00 | 61 | 1007.5 |
| 20260505064538 | 61 | 295 | 4.0 | 5.0 | 0.00 | 0.00 | 0.00 | 62 | 1007.3 |
| 20260505064032 | 61 | 295 | 3.0 | 7.0 | 0.00 | 0.00 | 0.00 | 62 | 1007.3 |
| 20260505063531 | 61 | 295 | 4.0 | 7.0 | 0.00 | 0.00 | 0.00 | 62 | 1007.4 |
| 20260505063050 | 61 | 295 | 4.0 | 7.0 | 0.00 | 0.00 | 0.00 | 62 | 1007.4 |
| 20260505062531 | 61 | 295 | 2.0 | 5.0 | 0.00 | 0.00 | 0.00 | 61 | 1007.4 |
| 20260505062030 | 61 | 0 | 0.0 | 2.0 | 0.00 | 0.00 | 0.00 | 61 | 1007.5 |
| 20260505061609 | 61 | 0 | 0.0 | 3.0 | 0.00 | 0.00 | 0.00 | 61 | 1007.5 |
| 20260505061034 | 60 | 0 | 0.0 | 4.0 | 0.00 | 0.00 | 0.00 | 61 | 1007.5 |
| 20260505060538 | 61 | 295 | 2.0 | 4.0 | 0.00 | 0.00 | 0.00 | 60 | 1007.5 |
| 20260505060046 | 62 | 295 | 1.0 | 3.0 | 0.00 | 0.00 | 0.00 | 58 | 1007.5 |
| 20260505055534 | 63 | 295 | 0.0 | 3.0 | 0.00 | 0.00 | 0.00 | 58 | 1007.4 |
| 20260505055038 | 63 | 295 | 1.0 | 4.0 | 0.00 | 0.00 | 0.00 | 57 | 1007.4 |
| 20260505054556 | 63 | 295 | 2.0 | 4.0 | 0.00 | 0.00 | 0.00 | 57 | 1007.4 |
| 20260505054034 | 63 | 295 | 2.0 | 3.0 | 0.00 | 0.00 | 0.00 | 57 | 1007.3 |
| 20260505053534 | 64 | 0 | 0.0 | 3.0 | 0.00 | 0.00 | 0.00 | 56 | 1007.2 |
| 20260505053114 | 64 | 0 | 0.0 | 3.0 | 0.00 | 0.00 | 0.00 | 55 | 1007.3 |
| 20260505052533 | 64 | 295 | 0.0 | 2.0 | 0.00 | 0.00 | 0.00 | 55 | 1007.2 |
| 20260505052033 | 64 | 0 | 0.0 | 2.0 | 0.00 | 0.00 | 0.00 | 56 | 1007.2 |
| 20260505051546 | 64 | 0 | 0.0 | 2.0 | 0.00 | 0.00 | 0.00 | 56 | 1007.2 |
| 20260505051033 | 64 | 0 | 0.0 | 3.0 | 0.00 | 0.00 | 0.00 | 56 | 1007.2 |
| 20260505050533 | 63 | 295 | 1.0 | 3.0 | 0.00 | 0.00 | 0.00 | 57 | 1007.2 |
| 20260505041546 | 67 | 295 | 1.0 | 7.0 | 0.00 | 0.00 | 0.00 | 51 | 1006.9 |
| 20260505041033 | 67 | 295 | 2.0 | 5.0 | 0.00 | 0.00 | 0.00 | 52 | 1007.0 |
| 20260505040536 | 67 | 295 | 0.0 | 5.0 | 0.00 | 0.00 | 0.00 | 51 | 1006.9 |
| 20260505040044 | 67 | 295 | 1.0 | 5.0 | 0.00 | 0.00 | 0.00 | 51 | 1006.9 |
| 20260505035537 | 68 | 295 | 2.0 | 5.0 | 0.00 | 0.00 | 0.00 | 50 | 1006.8 |
| 20260505035034 | 68 | 295 | 1.0 | 7.0 | 0.00 | 0.00 | 0.00 | 50 | 1006.7 |
| 20260505034545 | 68 | 295 | 2.0 | 7.0 | 0.00 | 0.00 | 0.00 | 49 | 1006.7 |
| 20260505034034 | 68 | 295 | 3.0 | 7.0 | 0.00 | 0.00 | 0.00 | 49 | 1006.6 |
| 20260505033534 | 70 | 295 | 2.0 | 7.0 | 0.00 | 0.00 | 0.00 | 48 | 1006.6 |
| 20260505033050 | 70 | 295 | 4.0 | 7.0 | 0.00 | 0.00 | 0.00 | 46 | 1006.5 |
| 20260505032533 | 71 | 295 | 3.0 | 7.0 | 0.00 | 0.00 | 0.00 | 46 | 1006.4 |
| 20260505032033 | 71 | 295 | 4.0 | 7.0 | 0.00 | 0.00 | 0.00 | 46 | 1006.4 |
| 20260505031548 | 71 | 295 | 4.0 | 7.0 | 0.00 | 0.00 | 0.00 | 46 | 1006.5 |
| 20260505031034 | 71 | 295 | 2.0 | 7.0 | 0.00 | 0.00 | 0.00 | 47 | 1006.4 |
| 20260505030534 | 72 | 295 | 2.0 | 7.0 | 0.00 | 0.00 | 0.00 | 47 | 1006.2 |
| 20260505030048 | 72 | 295 | 3.0 | 7.0 | 0.00 | 0.00 | 0.00 | 47 | 1006.3 |
| 20260505025534 | 72 | 295 | 3.0 | 4.0 | 0.00 | 0.00 | 0.00 | 47 | 1006.2 |
| 20260505025031 | 73 | 295 | 1.0 | 4.0 | 0.00 | 0.00 | 0.00 | 46 | 1006.0 |
| 20260505024604 | 74 | 295 | 2.0 | 5.0 | 0.00 | 0.00 | 0.00 | 46 | 1006.0 |
| 20260505024034 | 75 | 295 | 2.0 | 5.0 | 0.00 | 0.00 | 0.00 | 46 | 1006.0 |
| 20260505023535 | 75 | 295 | 2.0 | 5.0 | 0.00 | 0.00 | 0.00 | 43 | 1006.0 |
| 20260505023045 | 75 | 295 | 2.0 | 4.0 | 0.00 | 0.00 | 0.00 | 47 | 1005.9 |
| 20260505022534 | 76 | 295 | 2.0 | 4.0 | 0.00 | 0.00 | 0.00 | 47 | 1005.9 |
| 20260505022034 | 77 | 295 | 2.0 | 5.0 | 0.00 | 0.00 | 0.00 | 44 | 1005.9 |
| 20260505021601 | 78 | 295 | 2.0 | 5.0 | 0.00 | 0.00 | 0.00 | 39 | 1006.0 |
| 20260505021033 | 77 | 295 | 2.0 | 5.0 | 0.00 | 0.00 | 0.00 | 42 | 1005.9 |
| 20260505020534 | 78 | 295 | 3.0 | 5.0 | 0.00 | 0.00 | 0.00 | 41 | 1006.0 |
| 20260505020047 | 79 | 295 | 3.0 | 5.0 | 0.00 | 0.00 | 0.00 | 40 | 1005.9 |
| 20260505015534 | 79 | 295 | 4.0 | 7.0 | 0.00 | 0.00 | 0.00 | 39 | 1005.9 |
| 20260505015034 | 80 | 295 | 4.0 | 7.0 | 0.00 | 0.00 | 0.00 | 37 | 1006.0 |
| 20260505014549 | 80 | 295 | 4.0 | 7.0 | 0.00 | 0.00 | 0.00 | 35 | 1005.9 |
| 20260505014033 | 81 | 295 | 3.0 | 5.0 | 0.00 | 0.00 | 0.00 | 35 | 1005.8 |
| 20260505013535 | 81 | 295 | 2.0 | 5.0 | 0.00 | 0.00 | 0.00 | 33 | 1005.8 |
| 20260505013047 | 81 | 295 | 2.0 | 7.0 | 0.00 | 0.00 | 0.00 | 34 | 1006.0 |
| 20260505012533 | 81 | 295 | 3.0 | 8.0 | 0.00 | 0.00 | 0.00 | 33 | 1006.0 |
| 20260505012033 | 81 | 295 | 3.0 | 10.0 | 0.00 | 0.00 | 0.00 | 32 | 1006.0 |
| 20260505011548 | 82 | 295 | 4.0 | 10.0 | 0.00 | 0.00 | 0.00 | 32 | 1006.0 |
| 20260505011035 | 82 | 295 | 7.0 | 10.0 | 0.00 | 0.00 | 0.00 | 31 | 1006.0 |
| 20260505010534 | 82 | 295 | 3.0 | 8.0 | 0.00 | 0.00 | 0.00 | 33 | 1006.1 |
| 20260505010046 | 82 | 295 | 3.0 | 9.0 | 0.00 | 0.00 | 0.00 | 34 | 1006.0 |
| 20260505005534 | 82 | 295 | 4.0 | 9.0 | 0.00 | 0.00 | 0.00 | 31 | 1006.1 |
| 20260505005034 | 84 | 295 | 4.0 | 9.0 | 0.00 | 0.00 | 0.00 | 28 | 1006.2 |
| 20260505004545 | 84 | 295 | 2.0 | 7.0 | 0.00 | 0.00 | 0.00 | 26 | 1006.1 |
| 20260505004033 | 84 | 295 | 3.0 | 7.0 | 0.00 | 0.00 | 0.00 | 25 | 1006.2 |
| 20260505003535 | 84 | 295 | 3.0 | 7.0 | 0.00 | 0.00 | 0.00 | 25 | 1006.3 |
| 20260505003039 | 84 | 295 | 4.0 | 7.0 | 0.00 | 0.00 | 0.00 | 28 | 1006.2 |
| 20260505002534 | 84 | 295 | 3.0 | 8.0 | 0.00 | 0.00 | 0.00 | 26 | 1006.2 |
| 20260505002035 | 84 | 295 | 5.0 | 9.0 | 0.00 | 0.00 | 0.00 | 26 | 1006.3 |
| 20260505001541 | 84 | 295 | 5.0 | 11.0 | 0.00 | 0.00 | 0.00 | 25 | 1006.2 |
| 20260505001035 | 84 | 295 | 6.0 | 11.0 | 0.00 | 0.00 | 0.00 | 25 | 1006.2 |
| 20260505000535 | 84 | 295 | 7.0 | 10.0 | 0.00 | 0.00 | 0.00 | 24 | 1006.3 |
| 20260505000044 | 84 | 295 | 3.0 | 9.0 | 0.00 | 0.00 | 0.00 | 26 | 1006.4 |
| 20260504235534 | 83 | 295 | 3.0 | 9.0 | 0.00 | 0.00 | 0.00 | 26 | 1006.5 |
| 20260504235036 | 83 | 295 | 4.0 | 9.0 | 0.00 | 0.00 | 0.00 | 26 | 1006.5 |
| 20260504234544 | 83 | 295 | 3.0 | 9.0 | 0.00 | 0.00 | 0.00 | 26 | 1006.5 |
| 20260504234040 | 83 | 295 | 3.0 | 8.0 | 0.00 | 0.00 | 0.00 | 28 | 1006.5 |
| 20260504233534 | 84 | 295 | 3.0 | 8.0 | 0.00 | 0.00 | 0.00 | 26 | 1006.5 |
| 20260504233055 | 83 | 295 | 3.0 | 8.0 | 0.00 | 0.00 | 0.00 | 26 | 1006.6 |
| 20260504232534 | 83 | 295 | 3.0 | 10.0 | 0.00 | 0.00 | 0.00 | 26 | 1006.6 |
| 20260504232034 | 83 | 295 | 5.0 | 11.0 | 0.00 | 0.00 | 0.00 | 27 | 1006.6 |
| 20260504231540 | 83 | 295 | 4.0 | 11.0 | 0.00 | 0.00 | 0.00 | 26 | 1006.6 |
| 20260504231034 | 83 | 295 | 8.0 | 11.0 | 0.00 | 0.00 | 0.00 | 26 | 1006.7 |
| 20260504230534 | 83 | 295 | 2.0 | 13.0 | 0.00 | 0.00 | 0.00 | 26 | 1006.7 |
| 20260504230050 | 82 | 295 | 5.0 | 13.0 | 0.00 | 0.00 | 0.00 | 26 | 1006.9 |
| 20260504225535 | 83 | 295 | 6.0 | 11.0 | 0.00 | 0.00 | 0.00 | 26 | 1006.9 |
| 20260504225034 | 83 | 295 | 3.0 | 7.0 | 0.00 | 0.00 | 0.00 | 27 | 1006.9 |
| 20260504224546 | 83 | 295 | 3.0 | 11.0 | 0.00 | 0.00 | 0.00 | 26 | 1006.9 |
| 20260504224036 | 83 | 295 | 4.0 | 11.0 | 0.00 | 0.00 | 0.00 | 26 | 1007.0 |
| 20260504223534 | 83 | 295 | 2.0 | 5.0 | 0.00 | 0.00 | 0.00 | 27 | 1007.0 |
| 20260504223053 | 83 | 295 | 3.0 | 9.0 | 0.00 | 0.00 | 0.00 | 26 | 1007.1 |
| 20260504222533 | 82 | 295 | 2.0 | 10.0 | 0.00 | 0.00 | 0.00 | 26 | 1007.1 |
| 20260504222034 | 82 | 295 | 6.0 | 11.0 | 0.00 | 0.00 | 0.00 | 26 | 1007.3 |
| 20260504221547 | 83 | 295 | 5.0 | 11.0 | 0.00 | 0.00 | 0.00 | 26 | 1007.3 |
| 20260504221034 | 83 | 295 | 2.0 | 9.0 | 0.00 | 0.00 | 0.00 | 26 | 1007.3 |
| 20260504220535 | 82 | 295 | 2.0 | 9.0 | 0.00 | 0.00 | 0.00 | 27 | 1007.4 |
| 20260504215534 | 82 | 295 | 3.0 | 7.0 | 0.00 | 0.00 | 0.00 | 28 | 1007.4 |
| 20260504215033 | 81 | 295 | 1.0 | 14.0 | 0.00 | 0.00 | 0.00 | 28 | 1007.4 |
| 20260504214548 | 81 | 295 | 7.0 | 14.0 | 0.00 | 0.00 | 0.00 | 27 | 1007.6 |
| 20260504214034 | 81 | 295 | 2.0 | 9.0 | 0.00 | 0.00 | 0.00 | 28 | 1007.7 |
| 20260504213534 | 81 | 295 | 4.0 | 16.0 | 0.00 | 0.00 | 0.00 | 27 | 1007.7 |
| 20260504213055 | 81 | 295 | 6.0 | 16.0 | 0.00 | 0.00 | 0.00 | 27 | 1007.8 |
| 20260504212534 | 81 | 295 | 7.0 | 16.0 | 0.00 | 0.00 | 0.00 | 28 | 1007.8 |
| 20260504212037 | 81 | 295 | 4.0 | 9.0 | 0.00 | 0.00 | 0.00 | 28 | 1007.9 |
| 20260504211546 | 81 | 295 | 1.0 | 13.0 | 0.00 | 0.00 | 0.00 | 28 | 1007.9 |
| 20260504211034 | 81 | 295 | 5.0 | 13.0 | 0.00 | 0.00 | 0.00 | 27 | 1007.9 |
| 20260504210534 | 81 | 295 | 3.0 | 8.0 | 0.00 | 0.00 | 0.00 | 28 | 1008.0 |
| 20260504210044 | 80 | 295 | 3.0 | 9.0 | 0.00 | 0.00 | 0.00 | 28 | 1008.0 |
| 20260504205535 | 80 | 295 | 3.0 | 10.0 | 0.00 | 0.00 | 0.00 | 28 | 1008.2 |
| 20260504205034 | 80 | 295 | 3.0 | 10.0 | 0.00 | 0.00 | 0.00 | 29 | 1008.2 |
| 20260504204557 | 80 | 295 | 5.0 | 13.0 | 0.00 | 0.00 | 0.00 | 29 | 1008.3 |
| 20260504204035 | 80 | 295 | 6.0 | 13.0 | 0.00 | 0.00 | 0.00 | 28 | 1008.3 |
| 20260504203535 | 80 | 295 | 5.0 | 13.0 | 0.00 | 0.00 | 0.00 | 27 | 1008.2 |
| 20260504203050 | 80 | 295 | 3.0 | 9.0 | 0.00 | 0.00 | 0.00 | 27 | 1008.2 |
| 20260504202536 | 80 | 0 | 2.0 | 10.0 | 0.00 | 0.00 | 0.00 | 28 | 1008.4 |
| 20260504202037 | 80 | 295 | 6.0 | 10.0 | 0.00 | 0.00 | 0.00 | 28 | 1008.5 |
| 20260504201550 | 80 | 295 | 5.0 | 9.0 | 0.00 | 0.00 | 0.00 | 28 | 1008.5 |
| 20260504201034 | 80 | 295 | 2.0 | 5.0 | 0.00 | 0.00 | 0.00 | 28 | 1008.6 |
| 20260504200616 | 80 | 295 | 2.0 | 10.0 | 0.00 | 0.00 | 0.00 | 28 | 1008.7 |
| 20260504200047 | 79 | 295 | 2.0 | 10.0 | 0.00 | 0.00 | 0.00 | 28 | 1008.8 |
| 20260504195534 | 79 | 295 | 5.0 | 10.0 | 0.00 | 0.00 | 0.00 | 27 | 1008.8 |
| 20260504195035 | 79 | 295 | 1.0 | 8.0 | 0.00 | 0.00 | 0.00 | 29 | 1008.8 |
| 20260504194546 | 79 | 295 | 3.0 | 8.0 | 0.00 | 0.00 | 0.00 | 29 | 1008.8 |
| 20260504194034 | 79 | 295 | 3.0 | 7.0 | 0.00 | 0.00 | 0.00 | 30 | 1008.7 |
| 20260504193535 | 78 | 295 | 2.0 | 7.0 | 0.00 | 0.00 | 0.00 | 30 | 1008.8 |
| 20260504193042 | 78 | 0 | 1.0 | 9.0 | 0.00 | 0.00 | 0.00 | 29 | 1008.8 |
| 20260504192534 | 78 | 295 | 3.0 | 9.0 | 0.00 | 0.00 | 0.00 | 30 | 1008.8 |
| 20260504192034 | 77 | 295 | 3.0 | 5.0 | 0.00 | 0.00 | 0.00 | 31 | 1008.8 |
| 20260504191547 | 77 | 295 | 2.0 | 5.0 | 0.00 | 0.00 | 0.00 | 30 | 1008.9 |
| 20260504191033 | 76 | 295 | 3.0 | 10.0 | 0.00 | 0.00 | 0.00 | 30 | 1009.0 |
| 20260504190531 | 76 | 295 | 5.0 | 11.0 | 0.00 | 0.00 | 0.00 | 30 | 1009.0 |
| 20260504190040 | 76 | 295 | 8.0 | 12.0 | 0.00 | 0.00 | 0.00 | 30 | 1009.1 |
| 20260504185531 | 76 | 295 | 5.0 | 12.0 | 0.00 | 0.00 | 0.00 | 30 | 1009.0 |
| 20260504185320 | 76 | 295 | 5.0 | 12.0 | 0.00 | 0.00 | 0.00 | 32 | 1009.1 |
| 20260504184031 | 76 | 295 | 5.0 | 10.0 | 0.00 | 0.00 | 0.00 | 33 | 1009.1 |
| 20260504183736 | 76 | 295 | 5.0 | 9.0 | 0.00 | 0.00 | 0.00 | 35 | 1009.1 |
| 20260504182031 | 75 | 295 | 3.0 | 8.0 | 0.00 | 0.00 | 0.00 | 36 | 1009.1 |
| 20260504181545 | 74 | 295 | 3.0 | 11.0 | 0.00 | 0.00 | 0.00 | 37 | 1009.1 |
| 20260504181033 | 74 | 295 | 6.0 | 11.0 | 0.00 | 0.00 | 0.00 | 37 | 1009.0 |
| 20260504180714 | 74 | 295 | 3.0 | 10.0 | 0.00 | 0.00 | 0.00 | 38 | 1009.1 |
| 20260504180537 | 74 | 295 | 3.0 | 10.0 | 0.00 | 0.00 | 0.00 | 38 | 1009.1 |
| 20260504180041 | 73 | 295 | 3.0 | 11.0 | 0.00 | 0.00 | 0.00 | 39 | 1009.2 |
| 20260504175530 | 73 | 295 | 6.0 | 11.0 | 0.00 | 0.00 | 0.00 | 39 | 1009.0 |
| 20260504175034 | 73 | 295 | 5.0 | 10.0 | 0.00 | 0.00 | 0.00 | 38 | 1009.0 |
| 20260504174550 | 73 | 295 | 5.0 | 10.0 | 0.00 | 0.00 | 0.00 | 38 | 1009.1 |
| 20260504174031 | 72 | 295 | 3.0 | 10.0 | 0.00 | 0.00 | 0.00 | 40 | 1009.1 |
| 20260504173531 | 71 | 295 | 1.0 | 13.0 | 0.00 | 0.00 | 0.00 | 42 | 1009.2 |
| 20260504173048 | 71 | 295 | 7.0 | 13.0 | 0.00 | 0.00 | 0.00 | 41 | 1009.1 |
| 20260504172534 | 71 | 0 | 4.0 | 7.0 | 0.00 | 0.00 | 0.00 | 41 | 1009.1 |
| 20260504172035 | 70 | 295 | 2.0 | 10.0 | 0.00 | 0.00 | 0.00 | 43 | 1009.1 |
| 20260504171548 | 70 | 295 | 4.0 | 10.0 | 0.00 | 0.00 | 0.00 | 44 | 1009.1 |
| 20260504171032 | 70 | 295 | 3.0 | 10.0 | 0.00 | 0.00 | 0.00 | 45 | 1009.1 |
| 20260504170534 | 69 | 295 | 3.0 | 9.0 | 0.00 | 0.00 | 0.00 | 46 | 1009.1 |
| 20260504151034 | 64 | 295 | 5.0 | 10.0 | 0.00 | 0.00 | 0.00 | 52 | 1009.0 |
| 20260504150536 | 63 | 295 | 2.0 | 7.0 | 0.00 | 0.00 | 0.00 | 53 | 1009.0 |
| 20260504141034 | 55 | 0 | 0.0 | 0.0 | 0.00 | 0.00 | 0.00 | 71 | 1008.9 |
| 20260504140538 | 53 | 0 | 0.0 | 0.0 | 0.00 | 0.00 | 0.00 | 73 | 1008.8 |